Tracking 29892 objects as of 21-Nov-2024
HD Live streaming from Space Station
objects crossing your sky now

BLOCK DM-SL R/B

Track BLOCK DM-SL R/B now!


NORAD ID: 25662
Int'l Code: 1999-014B
Perigee: 617.4 km
Apogee: 35,936.2 km
Inclination: 1.0 °
Period: 641.8 minutes
Semi major axis: 24647 km
RCS: 22.0648 m2 (large)
Launch date: March 28, 1999
Source: Sea Launch (SEAL)
Launch site: SEA LAUNCH (SEAL)

Note: This is a ROCKET BODY
Your satellite tracking list
Your tracking list is empty




NASA's NSSDC Master Catalog

Two Line Element Set (TLE):
1 25662U 99014B   24325.77628934 -.00000001  00000-0  88812-3 0  9998
2 25662   1.0118  98.0033 7164705  48.4917 332.9207  2.24355027210267
Source of the keplerian elements: AFSPC